Date String (YYYY-MM-DD hh:mm:ss) UTC,Instrument flags,absolute air pressure of the measurement (hPa),sample flow rate (lpm),inlet stack bypass flow (lpm),air temperature of the measurement (°C),ambient temperature measured by the external sensor (°C),aerosol sample conditioner tube jacket temperature (°C),OPC LED temperature (°C),internal box temperature (°C),relative humidity of the measurement (%),span deviation,mass concentration of particles derived from Lorenz-Mie calculation of OPC scattering (μg/m³),mass concentration of particles derived from Lorenz-Mie calculation of OPC scattering (μg/m³),mass concentration of particles derived from Lorenz-Mie calculation of OPC scattering (μg/m³)
DateTimeUTC,F1_M11,P_M11,Q1_M11,Q2_M11,T1_M11,T2_M11,T3_M11,T4_M11,T5_M11,U1_M11,ZSPAN_M11,X0_M11,X2_M11,X1_M11
2024-04-14 06:00:00,SystemResetWarning,0828.4,5.00,000.00,025.9,025.2,000.0,034.3,027.7,012.3,0000.0,0015.56,0004.35,0002.77
2024-04-14 06:01:00,SystemResetWarning,0828.4,4.99,000.00,025.9,025.2,000.0,034.3,027.7,012.3,0000.0,0015.71,0004.29,0002.75
2024-04-14 06:02:00,SystemResetWarning,0828.4,4.99,000.00,025.9,025.2,000.0,034.3,027.7,012.3,0000.0,0016.05,0004.25,0002.74
2024-04-14 06:03:00,SystemResetWarning,0828.4,4.99,000.00,026.0,025.2,000.0,034.3,027.7,012.3,0000.0,0016.23,0004.22,0002.74
2024-04-14 06:04:00,SystemResetWarning,0828.4,5.01,000.00,026.0,025.2,000.0,034.3,027.8,012.3,0000.0,0015.85,0004.25,0002.76
2024-04-14 06:05:00,SystemResetWarning,0828.4,5.01,000.00,026.0,025.2,000.0,034.3,027.8,012.3,0000.0,0015.47,0004.28,0002.77
2024-04-14 06:06:00,SystemResetWarning,0828.4,5.00,000.00,026.0,025.2,000.0,034.3,027.8,012.2,0000.0,0015.65,0004.31,0002.78
2024-04-14 06:07:00,SystemResetWarning,0828.4,5.00,000.00,026.0,025.2,000.0,034.3,027.8,012.2,0000.0,0015.77,0004.26,0002.78
2024-04-14 06:08:00,SystemResetWarning,0828.4,5.00,000.00,026.0,025.2,000.0,034.3,027.8,012.2,0000.0,0015.39,0004.17,0002.78
2024-04-14 06:09:00,SystemResetWarning,0828.4,5.00,000.00,026.0,025.2,000.0,034.3,027.8,012.2,0000.0,0014.58,0004.13,0002.78
2024-04-14 06:10:00,SystemResetWarning,0828.4,4.99,000.00,026.0,025.2,000.0,034.3,027.8,012.2,0000.0,0014.21,0004.16,0002.80
2024-04-14 06:11:00,SystemResetWarning,0828.4,5.00,000.00,026.0,025.3,000.0,034.3,027.8,012.2,0000.0,0013.47,0004.12,0002.81
2024-04-14 06:12:00,SystemResetWarning,0828.4,4.99,000.00,026.0,025.3,000.0,034.4,027.8,012.2,0000.0,0012.89,0004.17,0002.83
2024-04-14 06:13:00,SystemResetWarning,0828.4,5.00,000.00,026.0,025.3,000.0,034.4,027.8,012.2,0000.0,0012.45,0004.14,0002.82
2024-04-14 06:14:00,SystemResetWarning,0828.4,5.00,000.00,026.0,025.3,000.0,034.4,027.8,012.2,0000.0,0012.68,0004.16,0002.82
2024-04-14 06:15:00,SystemResetWarning,0828.4,4.99,000.00,026.0,025.3,000.0,034.4,027.8,012.2,0000.0,0013.29,0004.18,0002.82
2024-04-14 06:16:00,SystemResetWarning,0828.3,4.99,000.00,026.0,025.3,000.0,034.4,027.8,012.2,0000.0,0013.79,0004.12,0002.81
2024-04-14 06:17:00,SystemResetWarning,0828.3,5.00,000.00,026.0,025.3,000.0,034.4,027.8,012.2,0000.0,0014.09,0004.10,0002.81
2024-04-14 06:18:00,SystemResetWarning,0828.4,5.00,000.00,026.0,025.3,000.0,034.4,027.8,012.2,0000.0,0013.41,0004.10,0002.80
2024-04-14 06:19:00,SystemResetWarning,0828.3,5.00,000.00,026.0,025.3,000.0,034.4,027.8,012.2,0000.0,0014.26,0004.16,0002.82
2024-04-14 06:20:00,SystemResetWarning,0828.3,5.00,000.00,026.0,025.3,000.0,034.4,027.8,012.1,0000.0,0014.27,0004.21,0002.82
2024-04-14 06:21:00,SystemResetWarning,0828.3,5.00,000.00,026.0,025.3,000.0,034.4,027.8,012.1,0000.0,0014.30,0004.20,0002.80
2024-04-14 06:22:00,SystemResetWarning,0828.3,5.00,000.00,026.0,025.3,000.0,034.4,027.8,012.1,0000.0,0014.81,0004.21,0002.79
2024-04-14 06:23:00,SystemResetWarning,0828.3,5.00,000.00,026.1,025.3,000.0,034.4,027.9,012.1,0000.0,0015.30,0004.21,0002.80
2024-04-14 06:24:00,SystemResetWarning,0828.3,5.00,000.00,026.1,025.3,000.0,034.4,027.8,012.1,0000.0,0015.47,0004.23,0002.82
2024-04-14 06:25:00,SystemResetWarning,0828.3,5.00,000.00,026.1,025.3,000.0,034.4,027.9,012.1,0000.0,0015.57,0004.23,0002.81
2024-04-14 06:26:00,SystemResetWarning,0828.4,5.00,000.00,026.1,025.3,000.0,034.4,027.9,012.1,0000.0,0015.26,0004.26,0002.82
2024-04-14 06:27:00,SystemResetWarning,0828.4,5.00,000.00,026.1,025.3,000.0,034.5,027.9,012.1,0000.0,0015.69,0004.31,0002.84
2024-04-14 06:28:00,SystemResetWarning,0828.4,5.00,000.00,026.1,025.3,000.0,034.4,027.9,012.1,0000.0,0015.98,0004.35,0002.84
2024-04-14 06:29:00,SystemResetWarning,0828.4,5.01,000.00,026.1,025.3,000.0,034.4,027.9,012.1,0000.0,0016.16,0004.41,0002.87
2024-04-14 06:30:00,SystemResetWarning,0828.4,5.00,000.00,026.1,025.3,000.0,034.4,027.9,012.1,0000.0,0017.30,0004.38,0002.84
2024-04-14 06:31:00,SystemResetWarning,0828.4,5.00,000.00,026.1,025.3,000.0,034.5,027.9,012.1,0000.0,0017.31,0004.41,0002.83
2024-04-14 06:32:00,SystemResetWarning,0828.4,5.00,000.00,026.1,025.3,000.0,034.5,027.9,012.1,0000.0,0017.29,0004.40,0002.82
2024-04-14 06:33:00,SystemResetWarning,0828.4,5.00,000.00,026.1,025.3,000.0,034.5,027.9,012.1,0000.0,0017.52,0004.42,0002.80
2024-04-14 06:34:00,SystemResetWarning,0828.4,5.00,000.00,026.1,025.3,000.0,034.5,027.9,012.1,0000.0,0017.54,0004.44,0002.80
2024-04-14 06:35:00,SystemResetWarning,0828.4,5.00,000.00,026.1,025.3,000.0,034.5,027.9,012.1,0000.0,0017.60,0004.43,0002.78
2024-04-14 06:36:00,SystemResetWarning,0828.4,4.99,000.00,026.1,025.4,000.0,034.5,027.9,012.1,0000.0,0017.22,0004.45,0002.78
2024-04-14 06:37:00,SystemResetWarning,0828.4,4.99,000.00,026.1,025.3,000.0,034.5,027.9,012.1,0000.0,0016.87,0004.41,0002.78
2024-04-14 06:38:00,SystemResetWarning,0828.4,4.99,000.00,026.1,025.3,000.0,034.5,027.9,012.1,0000.0,0016.52,0004.41,0002.78
2024-04-14 06:39:00,SystemResetWarning,0828.4,5.01,000.00,026.1,025.4,000.0,034.5,027.9,012.1,0000.0,0015.58,0004.43,0002.79
2024-04-14 06:40:00,SystemResetWarning,0828.4,5.02,000.00,026.1,025.4,000.0,034.5,027.9,012.1,0000.0,0015.54,0004.45,0002.79
2024-04-14 06:41:00,SystemResetWarning,0828.4,5.00,000.00,026.1,025.4,000.0,034.5,027.9,012.1,0000.0,0013.73,0004.49,0002.81
2024-04-14 06:42:00,SystemResetWarning,0828.4,4.99,000.00,026.1,025.4,000.0,034.5,027.9,012.1,0000.0,0013.73,0004.46,0002.84
2024-04-14 06:43:00,SystemResetWarning,0828.4,5.00,000.00,026.1,025.4,000.0,034.5,027.9,012.1,0000.0,0013.86,0004.43,0002.85
2024-04-14 06:44:00,SystemResetWarning,0828.4,5.01,000.00,026.1,025.4,000.0,034.5,027.9,012.1,0000.0,0013.42,0004.37,0002.87
2024-04-14 06:45:00,SystemResetWarning,0828.4,5.00,000.00,026.1,025.4,000.0,034.5,027.9,012.1,0000.0,0012.95,0004.35,0002.85
2024-04-14 06:46:00,SystemResetWarning,0828.4,5.01,000.00,026.1,025.4,000.0,034.5,027.9,012.1,0000.0,0012.65,0004.36,0002.84
2024-04-14 06:47:00,SystemResetWarning,0828.4,5.00,000.00,026.1,025.4,000.0,034.5,027.9,012.1,0000.0,0012.87,0004.32,0002.86
2024-04-14 06:48:00,SystemResetWarning,0828.4,4.99,000.00,026.1,025.4,000.0,034.5,027.9,012.1,0000.0,0013.11,0004.32,0002.87
2024-04-14 06:49:00,SystemResetWarning,0828.4,4.99,000.00,026.1,025.4,000.0,034.5,027.9,012.1,0000.0,0012.42,0004.32,0002.86
2024-04-14 06:50:00,SystemResetWarning,0828.3,5.00,000.00,026.1,025.4,000.0,034.5,027.9,012.1,0000.0,0012.08,0004.29,0002.85
2024-04-14 06:51:00,SystemResetWarning,0828.4,5.00,000.00,026.1,025.4,000.0,034.5,027.9,012.0,0000.0,0012.08,0004.25,0002.85
2024-04-14 06:52:00,SystemResetWarning,0828.4,5.00,000.00,026.1,025.4,000.0,034.5,027.9,012.1,0000.0,0011.87,0004.20,0002.84
2024-04-14 06:53:00,SystemResetWarning,0828.3,5.00,000.00,026.1,025.4,000.0,034.5,027.9,012.1,0000.0,0012.01,0004.20,0002.84
2024-04-14 06:54:00,SystemResetWarning,0828.4,5.00,000.00,026.1,025.4,000.0,034.5,027.9,012.0,0000.0,0011.42,0004.19,0002.83
2024-04-14 06:55:00,SystemResetWarning,0828.4,5.00,000.00,026.1,025.3,000.0,034.5,027.9,012.0,0000.0,0011.54,0004.22,0002.84
2024-04-14 06:56:00,SystemResetWarning,0828.4,5.00,000.00,026.1,025.4,000.0,034.5,027.9,012.0,0000.0,0011.94,0004.22,0002.85
2024-04-14 06:57:00,SystemResetWarning,0828.4,5.00,000.00,026.1,025.3,000.0,034.5,027.9,012.0,0000.0,0012.19,0004.18,0002.87
2024-04-14 06:58:00,SystemResetWarning,0828.4,5.00,000.00,026.1,025.3,000.0,034.5,027.9,012.0,0000.0,0011.87,0004.21,0002.89
2024-04-14 06:59:00,SystemResetWarning,0828.4,5.00,000.00,026.1,025.4,000.0,034.5,027.9,012.0,0000.0,0011.89,0004.21,0002.90
